Novato, CA

7:21 AM PDT on July 30, 2016 (GMT -0700)
Gnoss

Weather History for KDVO - November, 2012

Change the Weather History Date:

Tuesday, November 20, 2012

  Actual Average (KAPC) Record (KAPC)
Temperature  
Mean Temperature 58 °F 50 °F  
Max Temperature 62 °F 62 °F 74 °F (2005)
Min Temperature 55 °F 38 °F 29 °F (2007)
Degree Days  
Heating Degree Days 6    
Month to date heating degree days  
Since 1 July heating degree days  
Cooling Degree Days 0    
Month to date cooling degree days  
Year to date cooling degree days  
Growing Degree Days 8 (Base 50)    
Moisture  
Dew Point 59 °F    
Average Humidity 99    
Maximum Humidity 100    
Minimum Humidity 82    
Precipitation  
Precipitation 0.12 in - 1.68 in (1966)
Month to date precipitation  
Year to date precipitation  
Sea Level Pressure  
Sea Level Pressure 30.07 in    
Wind  
Wind Speed 10 mph (South)    
Max Wind Speed 20 mph    
Max Gust Speed 25 mph    
Visibility 6 miles    
Events Rain    
T = Trace of Precipitation, MM = Missing Value Source: NWS Daily Summary

Daily Weather History Graph

Daily Weather History Graph

Search for Another Location

Airport or City:

Trip Planner

Search our weather history database for the weather conditions in past years. The results will help you decide how hot, cold, wet, or windy it might be!

Date:

Astronomy

Nov. 20, 2012 Rise Set
Actual Time 6:57 AM PST 4:54 PM PST
Civil Twilight 6:28 AM PST 5:23 PM PST
Nautical Twilight 5:56 AM PST 5:55 PM PST
Astronomical Twilight 5:25 AM PST 6:26 PM PST
Moon 12:37 PM PST (11/20) No Moon Set
Length of Visible Light 10h 54m
Length of Day
9h 57m
First Quarter, 52% of the Moon is Illuminated
Nov 20
First Quarter
Nov 28
Full
Dec 6
Last Quarter
Dec 13
New
Dec 19
First Quarter

Hourly Weather History & Observations

Time (PST) Temp. Dew Point Humidity Pressure Visibility Wind Dir Wind Speed Gust Speed Precip Events Conditions
12:15 AM 59.0 °F 53.6 °F 82% 30.16 in 10.0 mi South 9.2 mph - N/A   Overcast
12:35 AM 57.2 °F 55.4 °F 94% 30.15 in 8.0 mi South 11.5 mph - N/A   Overcast
4:15 AM 55.4 °F 55.4 °F 100% 30.11 in 3.0 mi SSE 10.4 mph - N/A   Overcast
4:35 AM 57.2 °F 57.2 °F 100% 30.11 in 8.0 mi South 11.5 mph - N/A   Overcast
4:55 AM 57.2 °F 57.2 °F 100% 30.11 in 10.0 mi South 10.4 mph - N/A   Overcast
5:15 AM 57.2 °F 57.2 °F 100% 30.11 in 4.0 mi SSE 8.1 mph - N/A   Overcast
5:35 AM 57.2 °F 57.2 °F 100% 30.11 in 3.0 mi SSE 6.9 mph - N/A   Overcast
5:55 AM 57.2 °F 57.2 °F 100% 30.11 in 2.5 mi SSE 6.9 mph - N/A Rain Light Rain
6:15 AM 57.2 °F 57.2 °F 100% 30.12 in 2.5 mi SSE 5.8 mph - N/A Rain Light Rain
6:35 AM 57.2 °F 57.2 °F 100% 30.12 in 2.5 mi SSE 5.8 mph - N/A Rain Light Rain
6:55 AM 57.2 °F 57.2 °F 100% 30.11 in 2.0 mi SSE 5.8 mph - N/A Rain Light Rain
7:15 AM 57.2 °F 57.2 °F 100% 30.11 in 1.8 mi SSE 6.9 mph - N/A Rain Light Rain
7:35 AM 57.2 °F 57.2 °F 100% 30.11 in 4.0 mi SSE 10.4 mph - N/A Rain Light Rain
7:55 AM 57.2 °F 57.2 °F 100% 30.11 in 2.5 mi SSE 10.4 mph - N/A Rain Light Rain
8:15 AM 57.2 °F 57.2 °F 100% 30.11 in 4.0 mi South 11.5 mph 18.4 mph N/A Rain Light Rain
8:35 AM 59.0 °F 59.0 °F 100% 30.12 in 5.0 mi South 10.4 mph - N/A   Overcast
8:55 AM 57.2 °F 57.2 °F 100% 30.11 in 6.0 mi South 11.5 mph - N/A   Overcast
9:15 AM 57.2 °F 57.2 °F 100% 30.11 in 9.0 mi South 11.5 mph - N/A   Overcast
9:35 AM 59.0 °F 59.0 °F 100% 30.11 in 9.0 mi South 11.5 mph - N/A   Overcast
9:55 AM 59.0 °F 59.0 °F 100% 30.11 in 10.0 mi South 9.2 mph - N/A   Overcast
10:15 AM 59.0 °F 59.0 °F 100% 30.12 in 10.0 mi South 11.5 mph - N/A   Overcast
10:35 AM 60.8 °F 60.8 °F 100% 30.10 in 10.0 mi South 12.7 mph - N/A   Overcast
10:55 AM 60.8 °F 60.8 °F 100% 30.10 in 10.0 mi South 15.0 mph 19.6 mph N/A   Overcast
11:15 AM 60.8 °F 60.8 °F 100% 30.09 in 10.0 mi South 15.0 mph 23.0 mph N/A   Overcast
11:35 AM 60.8 °F 60.8 °F 100% 30.09 in 10.0 mi South 19.6 mph 23.0 mph N/A   Overcast
11:55 AM 62.6 °F 60.8 °F 94% 30.08 in 10.0 mi South 17.3 mph 24.2 mph N/A   Overcast
12:15 PM 62.6 °F 60.8 °F 94% 30.07 in 10.0 mi South 12.7 mph 19.6 mph N/A   Overcast
12:35 PM 60.8 °F 60.8 °F 100% 30.06 in 10.0 mi South 11.5 mph - N/A   Overcast
12:55 PM 60.8 °F 60.8 °F 100% 30.06 in 3.0 mi South 11.5 mph 19.6 mph N/A   Overcast
1:15 PM 59.0 °F 59.0 °F 100% 30.05 in 1.5 mi South 6.9 mph - N/A Rain Light Rain
1:35 PM 59.0 °F 59.0 °F 100% 30.05 in 2.5 mi South 9.2 mph 16.1 mph N/A   Overcast
1:55 PM 60.8 °F 60.8 °F 100% 30.04 in 3.0 mi South 13.8 mph 20.7 mph N/A   Overcast
2:15 PM 59.0 °F 59.0 °F 100% 30.04 in 5.0 mi South 15.0 mph 20.7 mph N/A   Overcast
2:35 PM 60.8 °F 60.8 °F 100% 30.04 in 5.0 mi South 16.1 mph - N/A   Overcast
2:55 PM 60.8 °F 60.8 °F 100% 30.04 in 10.0 mi SSW 17.3 mph 25.3 mph N/A   Overcast
3:15 PM 60.8 °F 60.8 °F 100% 30.03 in 9.0 mi South 13.8 mph 19.6 mph N/A   Overcast
3:35 PM 60.8 °F 60.8 °F 100% 30.03 in 7.0 mi South 13.8 mph 20.7 mph N/A   Overcast
3:55 PM 60.8 °F 60.8 °F 100% 30.03 in 8.0 mi South 11.5 mph 19.6 mph N/A   Overcast
4:15 PM 59.0 °F 59.0 °F 100% 30.03 in 4.0 mi South 15.0 mph 20.7 mph N/A   Overcast
4:55 PM 59.0 °F 59.0 °F 100% 30.03 in 3.0 mi South 16.1 mph 21.9 mph N/A Rain Light Rain
5:15 PM 59.0 °F 59.0 °F 100% 30.02 in 10.0 mi South 12.7 mph 18.4 mph N/A   Unknown
5:35 PM 59.0 °F 59.0 °F 100% 30.01 in 7.0 mi SSE 9.2 mph - N/A Rain Light Rain
5:55 PM 59.0 °F 59.0 °F 100% 30.02 in 5.0 mi South 9.2 mph 17.3 mph N/A   Overcast
6:15 PM 59.0 °F 59.0 °F 100% 30.02 in 4.0 mi South 11.5 mph 16.1 mph N/A Rain Light Rain
6:35 PM 59.0 °F 59.0 °F 100% 30.01 in 3.0 mi South 12.7 mph 19.6 mph N/A Rain Light Rain
6:55 PM 59.0 °F 59.0 °F 100% 30.01 in 2.5 mi South 11.5 mph 17.3 mph N/A Rain Light Rain
7:15 PM 59.0 °F 59.0 °F 100% 30.01 in 3.0 mi South 9.2 mph - N/A Rain Light Rain
7:35 PM 59.0 °F 59.0 °F 100% 30.02 in 1.8 mi South 6.9 mph - N/A Rain Light Rain
7:55 PM 59.0 °F 59.0 °F 100% 30.03 in 2.0 mi South 4.6 mph - 0.02 in Rain Light Rain
8:15 PM 59.0 °F 59.0 °F 100% 30.03 in 1.2 mi South 5.8 mph - 0.04 in Rain Rain
8:35 PM 59.0 °F 59.0 °F 100% 30.04 in 2.5 mi Calm Calm - 0.06 in Rain Light Rain
8:55 PM 59.0 °F 59.0 °F 100% 30.05 in 1.5 mi SW 6.9 mph - 0.09 in Rain Light Rain
9:15 PM 59.0 °F 59.0 °F 100% 30.05 in 7.0 mi South 3.5 mph - N/A Rain Light Rain
9:35 PM 59.0 °F 59.0 °F 100% 30.06 in 10.0 mi SSW 5.8 mph - N/A   Overcast
9:55 PM 59.0 °F 59.0 °F 100% 30.06 in 10.0 mi SSW 5.8 mph - N/A Rain Light Rain
10:15 PM 59.0 °F 59.0 °F 100% 30.06 in 6.0 mi SSW 6.9 mph - N/A Rain Light Rain
10:35 PM 59.0 °F 59.0 °F 100% 30.06 in 4.0 mi SSW 8.1 mph - 0.01 in Rain Light Rain
10:55 PM 59.0 °F 59.0 °F 100% 30.05 in 10.0 mi SW 5.8 mph - 0.01 in   Mostly Cloudy
11:15 PM 59.0 °F 59.0 °F 100% 30.05 in 10.0 mi WSW 5.8 mph - N/A   Mostly Cloudy
11:35 PM 59.0 °F 57.2 °F 94% 30.05 in 10.0 mi Calm Calm - N/A   Mostly Cloudy
11:55 PM 57.2 °F 57.2 °F 100% 30.06 in 10.0 mi Calm Calm - N/A   Mostly Cloudy